{"data":{"norad_id":68812,"intl_designator":"2026-089L","name":"STARLINK-37431","alt_names":[],"object_type":"PAYLOAD","status":"ACTIVE","operator":null,"country":"US","launch_date":"2026-04-23","launch_site_code":"AFWTR","launch_vehicle":null,"mission":null,"orbit_class":"UNKNOWN","rcs_meters":null,"size_class":null,"mass_kg":null,"dimensions":null,"purposes":["comms"],"wikipedia_slug":null,"has_3d_model":false,"image_url":null,"decayed_at":null,"tle_current":{"epoch":"2026-09-19T19:44:39.426720Z","epoch_age_seconds":98634,"freshness":"FRESH","line1":"1 68812U 26089L   26262.82267855  .00013843  00000+0  43026-3 0  9997","line2":"2 68812  97.2855 108.5704 0001918  77.8784 282.2674 15.33448470 23159","mean_motion":15.3344847,"eccentricity":0.0001918,"inclination_deg":97.2855,"raan_deg":108.5704,"arg_perigee_deg":77.8784,"mean_anomaly_deg":282.2674,"bstar":0.00043026,"rev_number":2315,"period_min":93.905992158967,"perigee_km":464.22023434168,"apogee_km":466.84546609623,"semimajor_km":6843.669850219,"source":"CELESTRAK","updated_at":"2026-09-20T09:00:44.008388Z"}}}